EW7659 Weather Reports


Display with metric or nautical units.
time (UTC)temp
F
wind
direction
speed
MPH
gust
MPH
rain 1hr
in
rain 24hr
in
rain mn
in
humidity
%
barometer
mb
20260509203440 84 177 0.0 0.0 0.00 0.04 0.01 33 1004.4
20260509202936 84 177 0.0 1.0 0.00 0.04 0.01 31 1004.4
20260509202659 84 177 0.0 1.0 0.00 0.04 0.01 31 1004.5
20260509202414 83 177 0.0 0.0 0.00 0.04 0.01 33 1004.6
20260509201436 84 177 0.0 1.0 0.00 0.04 0.01 32 1004.5
20260509200934 84 177 0.0 1.0 0.00 0.04 0.01 35 1004.6
20260509200432 83 177 0.0 1.0 0.00 0.04 0.01 35 1004.6
20260509195932 83 178 0.0 1.0 0.00 0.04 0.01 35 1004.7
20260509195432 84 187 0.0 4.0 0.00 0.04 0.01 36 1004.7
20260509194934 84 188 0.0 4.0 0.00 0.04 0.01 36 1004.8
20260509194431 84 189 0.0 3.0 0.00 0.04 0.01 35 1004.9
20260509193933 83 190 0.0 3.0 0.00 0.04 0.01 34 1004.9
20260509193434 83 189 0.0 3.0 0.00 0.04 0.01 34 1004.9
20260509192932 83 189 0.0 3.0 0.00 0.04 0.01 34 1004.9
20260509192438 83 186 0.0 1.0 0.00 0.04 0.01 34 1004.9
20260509192155 83 186 0.0 1.0 0.00 0.04 0.01 41 1005.0
20260509191433 83 186 0.0 1.0 0.00 0.04 0.01 41 1005.0
20260509190931 82 184 0.0 3.0 0.00 0.04 0.01 41 1005.0
20260509190426 82 184 0.0 3.0 0.00 0.04 0.01 42 1005.0
20260509185921 82 182 0.0 1.0 0.00 0.04 0.01 41 1005.1
20260509185413 82 182 0.0 1.0 0.00 0.04 0.01 42 1005.1
20260509184906 82 182 0.0 3.0 0.00 0.04 0.01 40 1005.2
20260509184408 82 182 0.0 3.0 0.00 0.04 0.01 42 1005.2
20260509183918 82 186 0.0 0.0 0.00 0.04 0.01 39 1005.2
20260509183632 82 185 0.0 1.0 0.00 0.04 0.01 39 1005.3
20260509183409 82 185 0.0 1.0 0.00 0.04 0.01 39 1005.3
20260509182904 82 185 0.0 5.0 0.00 0.04 0.01 41 1005.2
20260509182404 81 185 0.0 5.0 0.00 0.04 0.01 46 1005.4
20260509181904 81 173 0.0 3.0 0.00 0.04 0.01 43 1005.4
20260509181404 81 175 0.0 3.0 0.00 0.04 0.01 47 1005.4
20260509180907 81 175 0.0 2.0 0.00 0.04 0.01 52 1005.5
20260509180403 80 175 0.0 9.0 0.00 0.04 0.01 52 1005.6
20260509175903 80 175 0.0 9.0 0.00 0.04 0.01 51 1005.7
20260509175404 80 171 0.0 4.0 0.00 0.04 0.01 48 1005.7
20260509174904 80 171 0.0 5.0 0.00 0.04 0.01 49 1005.8
20260509174625 80 171 0.0 5.0 0.00 0.04 0.01 48 1005.8
20260509173904 80 175 0.0 1.0 0.00 0.04 0.01 49 1005.9
20260509173403 81 175 0.0 1.0 0.00 0.04 0.01 49 1005.9
20260509172909 80 175 0.0 0.0 0.00 0.04 0.01 52 1005.8
20260509172404 80 175 0.0 6.0 0.00 0.04 0.01 52 1005.8
20260509171904 80 175 0.0 6.0 0.00 0.04 0.01 51 1005.9
20260509171404 80 182 0.0 2.0 0.00 0.04 0.01 51 1005.8
20260509170904 79 180 0.0 3.0 0.00 0.04 0.01 50 1005.9
20260509170409 80 180 0.0 3.0 0.00 0.04 0.01 49 1005.8
20260509165904 79 189 0.0 3.0 0.00 0.04 0.01 48 1005.9
20260509165404 79 189 0.0 2.0 0.00 0.04 0.01 51 1005.9
20260509164904 78 184 0.0 2.0 0.00 0.04 0.01 54 1005.9
20260509164404 78 184 0.0 0.0 0.00 0.04 0.01 53 1005.9
20260509164126 77 184 0.0 0.0 0.00 0.04 0.01 53 1006.0
20260509163403 77 184 0.0 1.0 0.00 0.04 0.01 55 1006.0
20260509162904 77 186 0.0 1.0 0.00 0.04 0.01 55 1005.9
20260509162404 77 207 0.0 0.0 0.00 0.04 0.01 58 1005.9
20260509161903 76 208 0.0 0.0 0.00 0.04 0.01 59 1006.0
20260509161404 76 208 0.0 0.0 0.00 0.04 0.01 58 1005.9
20260509160906 76 208 0.0 0.0 0.00 0.04 0.01 62 1005.9
20260509160405 75 208 0.0 0.0 0.00 0.04 0.01 64 1005.9
20260509155905 75 211 0.0 0.0 0.00 0.04 0.01 61 1005.9
20260509155357 75 219 0.0 0.0 0.00 0.04 0.01 59 1005.9
20260509154851 74 219 0.0 0.0 0.00 0.04 0.01 66 1005.8
20260509154346 74 219 0.0 0.0 0.00 0.04 0.01 64 1005.7
20260509153839 74 219 0.0 0.0 0.00 0.04 0.01 65 1005.6
20260509153332 74 219 0.0 0.0 0.00 0.04 0.01 64 1005.7
20260509152829 73 219 0.0 0.0 0.00 0.04 0.01 71 1005.6
20260509152321 73 219 0.0 0.0 0.00 0.04 0.01 72 1005.7
20260509151815 72 219 0.0 0.0 0.00 0.04 0.01 73 1005.7
20260509151308 71 219 0.0 0.0 0.00 0.04 0.01 74 1005.8
20260509150810 70 219 0.0 0.0 0.00 0.04 0.01 76 1005.8
20260509150308 69 219 0.0 0.0 0.00 0.04 0.01 77 1005.8
20260509150034 69 219 0.0 0.0 0.00 0.04 0.01 80 1005.8
20260509145530 68 219 0.0 0.0 0.00 0.04 0.01 79 1005.8
20260509144810 67 219 0.0 0.0 0.00 0.04 0.01 83 1005.8
20260509144310 66 219 0.0 0.0 0.00 0.04 0.01 83 1005.8
20260509143806 65 219 0.0 0.0 0.00 0.04 0.01 84 1005.8
20260509143322 65 219 0.0 0.0 0.00 0.04 0.01 87 1005.7
20260509142805 64 219 0.0 0.0 0.00 0.04 0.01 88 1005.7
20260509142307 63 219 0.0 0.0 0.00 0.04 0.01 89 1005.7
20260509141805 62 219 0.0 0.0 0.01 0.04 0.01 91 1005.7
20260509141523 62 219 0.0 0.0 0.01 0.04 0.01 93 1005.7
20260509140807 61 219 0.0 0.0 0.01 0.04 0.01 94 1005.8
20260509140311 61 219 0.0 0.0 0.01 0.04 0.01 95 1005.6
20260509135806 60 219 0.0 0.0 0.01 0.04 0.01 95 1005.7
20260509135306 60 219 0.0 0.0 0.01 0.04 0.01 94 1005.7
20260509135037 60 219 0.0 0.0 0.01 0.04 0.01 94 1005.7
20260509134304 59 219 0.0 0.0 0.01 0.04 0.01 94 1005.7
20260509133801 58 219 0.0 0.0 0.01 0.04 0.01 95 1005.6
20260509133301 58 219 0.0 0.0 0.01 0.04 0.01 94 1005.6
20260509132803 58 219 0.0 0.0 0.01 0.04 0.01 95 1005.6
20260509132305 57 219 0.0 0.0 0.01 0.04 0.01 95 1005.5
20260509132020 56 219 0.0 0.0 0.00 0.03 0.00 94 1005.5
20260509131302 55 219 0.0 0.0 0.00 0.03 0.00 95 1005.5
20260509130801 54 219 0.0 0.0 0.00 0.03 0.00 95 1005.5
20260509130301 54 219 0.0 0.0 0.00 0.03 0.00 95 1005.5
20260509125801 53 219 0.0 0.0 0.00 0.03 0.00 94 1005.4
20260509125301 52 219 0.0 0.0 0.00 0.03 0.00 94 1005.4
20260509124801 52 219 0.0 0.0 0.00 0.03 0.00 94 1005.3
20260509124301 51 219 0.0 0.0 0.00 0.03 0.00 95 1005.3
20260509124020 51 219 0.0 0.0 0.00 0.03 0.00 95 1005.3
20260509123302 50 219 0.0 0.0 0.00 0.03 0.00 95 1005.2
20260509122801 50 219 0.0 0.0 0.00 0.03 0.00 95 1005.1
20260509122310 50 219 0.0 0.0 0.00 0.03 0.00 95 1005.1
20260509121806 50 219 0.0 0.0 0.00 0.03 0.00 95 1005.1
20260509121300 49 219 0.0 0.0 0.00 0.03 0.00 95 1005.0
20260509120954 49 219 0.0 0.0 0.00 0.03 0.00 95 1004.9
20260509120949 49 219 0.0 0.0 0.00 0.03 0.00 95 1004.9
20260509115743 49 219 0.0 0.0 0.00 0.03 0.00 95 1005.0
20260509115244 49 219 0.0 0.0 0.00 0.03 0.00 95 1004.9
20260509114741 48 219 0.0 0.0 0.00 0.03 0.00 95 1004.9
20260509114240 48 219 0.0 0.0 0.00 0.03 0.00 95 1004.8
20260509114221 48 219 0.0 0.0 0.00 0.03 0.00 95 1004.9
20260509113236 48 219 0.0 0.0 0.00 0.03 0.00 95 1004.9
20260509112735 48 219 0.0 0.0 0.00 0.03 0.00 95 1004.7
20260509112232 49 219 0.0 0.0 0.00 0.03 0.00 95 1004.7
20260509111957 49 219 0.0 0.0 0.00 0.03 0.00 95 1004.8
20260509111231 49 219 0.0 0.0 0.00 0.03 0.00 95 1004.8
20260509110958 49 219 0.0 0.0 0.00 0.03 0.00 95 1004.8
20260509110232 49 219 0.0 0.0 0.00 0.03 0.00 95 1004.7
20260509105732 49 219 0.0 0.0 0.00 0.03 0.00 95 1004.7
20260509105232 49 219 0.0 0.0 0.00 0.03 0.00 95 1004.7
20260509104732 49 219 0.0 0.0 0.00 0.03 0.00 95 1004.6
20260509104232 49 219 0.0 0.0 0.00 0.03 0.00 95 1004.6
20260509103730 49 219 0.0 0.0 0.00 0.03 0.00 95 1004.6
20260509103231 49 219 0.0 0.0 0.00 0.03 0.00 95 1004.6
20260509102724 49 219 0.0 0.0 0.00 0.03 0.00 95 1004.7
20260509102222 49 219 0.0 0.0 0.00 0.03 0.00 95 1004.7
20260509101722 49 219 0.0 0.0 0.00 0.03 0.00 95 1004.8
20260509101446 49 219 0.0 0.0 0.00 0.03 0.00 95 1004.8
20260509100721 49 219 0.0 0.0 0.00 0.03 0.00 95 1004.8
20260509100708 50 219 0.0 0.0 0.00 0.03 0.00 95 1004.8
20260509095717 50 219 0.0 0.0 0.00 0.03 0.00 94 1004.9
20260509095216 50 219 0.0 0.0 0.00 0.03 0.00 95 1004.9
20260509094717 50 219 0.0 0.0 0.00 0.03 0.00 95 1004.9
20260509094217 50 219 0.0 0.0 0.00 0.03 0.00 94 1005.0
20260509093717 50 219 0.0 0.0 0.00 0.03 0.00 94 1005.0
20260509093215 51 219 0.0 0.0 0.00 0.03 0.00 95 1005.0
20260509092714 51 219 0.0 0.0 0.00 0.03 0.00 95 1005.0
20260509092215 51 219 0.0 0.0 0.00 0.03 0.00 95 1005.1
20260509091924 51 219 0.0 0.0 0.00 0.03 0.00 95 1005.1
20260509091917 51 219 0.0 0.0 0.00 0.03 0.00 95 1005.1
20260509090714 51 219 0.0 0.0 0.00 0.03 0.00 95 1005.1
20260509090215 51 219 0.0 0.0 0.00 0.03 0.00 95 1005.0
20260509085714 51 219 0.0 0.0 0.00 0.03 0.00 94 1005.0
20260509085214 51 219 0.0 0.0 0.00 0.03 0.00 94 1005.1
20260509085201 51 219 0.0 0.0 0.00 0.03 0.00 95 1005.1
20260509084214 51 219 0.0 0.0 0.00 0.03 0.00 95 1005.1
20260509083936 51 219 0.0 0.0 0.00 0.03 0.00 95 1005.1
20260509083213 51 219 0.0 0.0 0.00 0.03 0.00 95 1005.1
20260509082931 51 219 0.0 0.0 0.00 0.03 0.00 94 1005.1
20260509082209 51 219 0.0 0.0 0.00 0.03 0.00 94 1005.0
20260509081708 51 219 0.0 0.0 0.00 0.03 0.00 94 1005.0
20260509081209 52 219 0.0 0.0 0.00 0.03 0.00 94 1005.0
20260509081150 52 219 0.0 0.0 0.00 0.03 0.00 94 1005.0
20260509080651 52 219 0.0 0.0 0.00 0.03 0.00 94 1005.0
20260509075708 52 219 0.0 0.0 0.00 0.03 0.00 94 1005.1
20260509075208 52 219 0.0 0.0 0.00 0.03 0.00 94 1005.0
20260509074708 52 219 0.0 0.0 0.00 0.03 0.00 94 1005.0
20260509074204 52 219 0.0 0.0 0.00 0.03 0.00 94 1005.1
20260509073704 52 219 0.0 0.0 0.00 0.03 0.00 94 1005.0
20260509073205 52 219 0.0 0.0 0.00 0.03 0.00 94 1005.0
20260509072705 52 219 0.0 0.0 0.00 0.03 0.00 94 1005.0
20260509072204 52 219 0.0 0.0 0.00 0.03 0.00 94 1004.9
20260509071704 53 219 0.0 0.0 0.00 0.03 0.00 94 1004.9
20260509071204 53 219 0.0 0.0 0.00 0.03 0.00 94 1005.0
20260509070705 53 219 0.0 0.0 0.00 0.03 0.00 94 1005.2
20260509070204 53 219 0.0 0.0 0.00 0.03 0.00 94 1005.2
20260509065704 53 219 0.0 0.0 0.00 0.03 0.00 94 1005.2
20260509065205 53 219 0.0 0.0 0.00 0.03 0.00 94 1005.2
20260509064704 54 219 0.0 0.0 0.00 0.03 0.00 94 1005.3
20260509064205 54 219 0.0 0.0 0.00 0.03 0.00 94 1005.3
20260509063703 54 219 0.0 0.0 0.00 0.03 0.00 94 1005.4
20260509063426 54 219 0.0 0.0 0.00 0.03 0.00 94 1005.3
20260509062704 54 219 0.0 0.0 0.00 0.03 0.00 94 1005.3
20260509062204 54 219 0.0 0.0 0.00 0.03 0.00 94 1005.3
20260509061926 54 219 0.0 0.0 0.00 0.03 0.00 94 1005.2
20260509061204 55 219 0.0 0.0 0.00 0.03 0.00 93 1005.2
20260509060703 55 219 0.0 0.0 0.00 0.03 0.00 93 1005.1
20260509060202 55 219 0.0 0.0 0.00 0.03 0.00 94 1005.2
20260509055659 55 219 0.0 0.0 0.00 0.03 0.00 94 1005.2
20260509055412 55 219 0.0 0.0 0.00 0.03 0.00 94 1005.2
20260509054655 55 219 0.0 0.0 0.00 0.03 0.00 93 1005.2
20260509054153 55 219 0.0 0.0 0.00 0.03 0.00 93 1005.2
20260509053926 55 219 0.0 0.0 0.00 0.03 0.00 93 1005.2
20260509053422 56 219 0.0 0.0 0.00 0.03 0.00 93 1005.2
20260509052647 56 219 0.0 0.0 0.00 0.03 0.00 93 1005.3
20260509052145 56 219 0.0 0.0 0.00 0.03 0.00 93 1005.4
20260509051645 56 219 0.0 0.0 0.00 0.03 0.00 93 1005.4
20260509051145 56 219 0.0 0.0 0.00 0.03 0.00 93 1005.5
20260509050643 56 219 0.0 0.0 0.00 0.03 0.00 93 1005.7
20260509050140 56 219 0.0 0.0 0.00 0.03 0.00 93 1005.7
20260509045638 56 219 0.0 0.0 0.00 0.03 0.03 93 1005.7
20260509045137 56 219 0.0 0.0 0.00 0.03 0.03 93 1005.7
20260509044634 56 219 0.0 0.0 0.00 0.03 0.03 93 1005.6
20260509044133 56 219 0.0 0.0 0.00 0.03 0.03 93 1005.6
20260509043633 56 219 0.0 0.0 0.00 0.03 0.03 93 1005.5
20260509043133 56 219 0.0 0.0 0.00 0.03 0.03 93 1005.5
20260509042634 56 219 0.0 0.0 0.00 0.03 0.03 93 1005.5
20260509042133 56 219 0.0 0.0 0.00 0.03 0.03 92 1005.5
20260509041633 57 219 0.0 0.0 0.00 0.03 0.03 92 1005.5
20260509041133 57 219 0.0 0.0 0.00 0.03 0.03 92 1005.5
20260509040856 57 219 0.0 0.0 0.00 0.03 0.03 92 1005.6
20260509040133 57 219 0.0 0.0 0.00 0.03 0.03 92 1005.5
20260509035853 57 219 0.0 0.0 0.00 0.03 0.03 91 1005.5
20260509035133 57 219 0.0 0.0 0.00 0.03 0.03 91 1005.4
20260509034633 58 219 0.0 0.0 0.00 0.03 0.03 91 1005.4
20260509034133 58 219 0.0 0.0 0.00 0.03 0.03 91 1005.4
20260509033634 58 219 0.0 0.0 0.00 0.03 0.03 91 1005.3
20260509033134 58 219 0.0 0.0 0.00 0.03 0.03 91 1005.1
20260509032900 58 219 0.0 0.0 0.00 0.03 0.03 91 1004.9
20260509032359 58 219 0.0 0.0 0.00 0.03 0.03 91 1004.9
20260509031855 58 219 0.0 0.0 0.00 0.03 0.03 91 1004.7
20260509031136 58 219 0.0 0.0 0.00 0.03 0.03 90 1004.8
20260509030634 59 219 0.0 0.0 0.00 0.03 0.03 89 1004.7
20260509030133 59 219 0.0 0.0 0.00 0.03 0.03 89 1004.6
20260509025634 59 219 0.0 0.0 0.00 0.03 0.03 89 1004.6
20260509025134 59 219 0.0 0.0 0.00 0.03 0.03 89 1004.5
20260509024633 60 219 0.0 0.0 0.00 0.03 0.03 89 1004.4
20260509024128 60 219 0.0 0.0 0.00 0.03 0.03 88 1004.3
20260509023622 60 219 0.0 0.0 0.00 0.03 0.03 88 1004.2
20260509023338 60 219 0.0 0.0 0.00 0.03 0.03 87 1004.1
20260509022835 60 219 0.0 0.0 0.00 0.03 0.03 87 1004.0
20260509022115 60 219 0.0 0.0 0.00 0.03 0.03 87 1004.0
20260509021616 61 219 0.0 0.0 0.00 0.03 0.03 86 1003.9
20260509021113 61 219 0.0 0.0 0.00 0.03 0.03 86 1003.9
20260509020616 61 219 0.0 0.0 0.00 0.03 0.03 85 1003.9
20260509020114 62 219 0.0 0.0 0.00 0.03 0.03 84 1003.8
20260509015612 62 219 0.0 0.0 0.00 0.03 0.03 83 1003.6
20260509015111 62 219 0.0 0.0 0.00 0.03 0.03 83 1003.6
20260509014613 63 219 0.0 0.0 0.00 0.03 0.03 82 1003.5
20260509014110 63 219 0.0 0.0 0.00 0.03 0.03 81 1003.3
20260509013607 63 219 0.0 0.0 0.00 0.03 0.03 80 1003.3
20260509013107 64 219 0.0 0.0 0.00 0.03 0.03 79 1003.2
20260509012606 64 219 0.0 0.0 0.00 0.03 0.03 79 1003.1
20260509012105 64 219 0.0 0.0 0.00 0.03 0.03 78 1002.9
20260509011605 65 219 0.0 1.0 0.00 0.03 0.03 77 1002.9
20260509011105 65 219 0.0 1.0 0.00 0.03 0.03 77 1002.8
20260509010606 65 219 0.0 1.0 0.00 0.03 0.03 76 1002.7
20260509010105 66 218 0.0 0.0 0.00 0.03 0.03 75 1002.7
20260509005605 66 218 0.0 0.0 0.00 0.03 0.03 75 1002.6
20260509005105 67 214 0.0 0.0 0.00 0.03 0.03 74 1002.5
20260509004605 67 215 0.0 2.0 0.00 0.03 0.03 73 1002.6
20260509004105 67 214 0.0 7.0 0.00 0.03 0.03 72 1002.5
20260509003605 68 196 1.0 7.0 0.00 0.03 0.03 71 1002.4
20260509003106 69 241 1.0 6.0 0.00 0.03 0.03 72 1002.3
20260509002603 69 198 0.0 6.0 0.00 0.03 0.03 73 1002.2
20260509002104 70 311 0.0 0.0 0.00 0.03 0.03 74 1001.9
20260509001601 71 170 0.0 0.0 0.00 0.03 0.03 73 1001.7
20260509001059 71 238 0.0 1.0 0.00 0.03 0.03 74 1001.8
20260509000820 71 182 0.0 4.0 0.00 0.03 0.03 74 1001.7
20260509000059 71 182 0.0 6.0 0.00 0.03 0.03 74 1001.4
20260508235559 70 181 0.0 7.0 0.00 0.03 0.03 75 1001.1
20260508235053 70 197 0.0 1.0 0.00 0.03 0.03 75 1000.9
20260508234553 69 177 0.0 1.0 0.00 0.03 0.03 76 1000.7
20260508234056 69 167 0.0 0.0 0.00 0.03 0.03 78 1000.6
20260508233554 68 166 0.0 0.0 0.00 0.03 0.03 78 1000.5
20260508233054 67 166 0.0 1.0 0.00 0.03 0.03 80 1000.6
20260508232549 67 166 0.0 1.0 0.00 0.03 0.03 78 1000.3
20260508232056 67 166 0.0 0.0 0.00 0.03 0.03 78 1000.1
20260508231551 67 166 0.0 0.0 0.00 0.03 0.03 79 1000.3
20260508231054 67 166 0.0 0.0 0.01 0.03 0.03 78 1000.2
20260508230548 67 166 0.0 0.0 0.01 0.03 0.03 77 1000.2
20260508230050 67 166 0.0 0.0 0.01 0.03 0.03 77 1000.1
20260508225542 67 166 0.0 0.0 0.02 0.02 0.03 76 999.7
20260508225045 67 166 0.0 0.0 0.02 0.02 0.03 76 999.8
20260508224543 67 166 0.0 0.0 0.02 0.02 0.03 76 1000.0
20260508224043 67 167 0.0 0.0 0.02 0.02 0.03 75 1000.5
20260508223545 67 167 0.0 0.0 0.02 0.02 0.03 76 1000.6
20260508223043 67 167 0.0 3.0 0.02 0.02 0.03 77 1000.6
20260508222543 67 166 0.0 3.0 0.02 0.02 0.03 76 1000.5
20260508222043 68 167 1.0 9.0 0.02 0.02 0.03 76 1000.8
20260508221802 68 169 0.0 9.0 0.02 0.02 0.03 76 1000.8
20260508221038 68 164 0.0 2.0 0.01 0.02 0.02 77 1000.8
20260508220539 68 148 0.0 0.0 0.01 0.02 0.02 77 1001.0
20260508220257 68 172 0.0 0.0 0.01 0.02 0.02 78 1001.3
20260508215539 68 175 0.0 0.0 0.01 0.01 0.01 80 1001.9
20260508215257 69 175 0.0 0.0 0.01 0.01 0.01 80 1002.0
20260508214806 69 175 0.0 0.0 0.01 0.01 0.01 79 1002.0
20260508214042 69 175 0.0 0.0 0.01 0.01 0.01 79 1002.1
20260508213541 70 175 0.0 0.0 0.01 0.01 0.01 78 1001.9
20260508213523 70 175 0.0 0.0 0.01 0.01 0.01 74 1001.8
20260508212534 70 175 0.0 0.0 0.01 0.01 0.01 73 1001.8
20260508212038 71 175 0.0 0.0 0.01 0.01 0.01 73 1002.2
20260508211534 71 175 0.0 0.0 0.01 0.01 0.01 69 1002.0
20260508211034 72 175 0.0 0.0 0.01 0.01 0.01 69 1002.3
20260508210534 73 175 0.0 0.0 0.01 0.01 0.01 70 1003.0
20260508210032 74 175 0.0 0.0 0.01 0.01 0.01 62 1002.8
20260508205534 75 175 0.0 0.0 0.00 0.00 0.00 56 1003.0
20260508205038 75 175 0.0 0.0 0.00 0.00 0.00 56 1003.2
20260508204534 75 175 0.0 0.0 0.00 0.00 0.00 52 1003.4
20260508204033 75 175 0.0 0.0 0.00 0.00 0.00 52 1003.1